TimeCDT,TemperatureF,Dew PointF,Humidity,Sea Level PressureIn,VisibilityMPH,Wind Direction,Wind SpeedMPH,Gust SpeedMPH,PrecipitationIn,Events,Conditions,WindDirDegrees,DateUTC
12:01 AM,51.8,48.2,88,30.26,5.0,East,5.8,-,0.00,Rain,Light Rain,100,2013-04-27 05:01:00
12:53 AM,52.0,48.9,89,30.23,7.0,East,6.9,-,0.01,,Overcast,90,2013-04-27 05:53:00
1:41 AM,51.8,48.2,88,30.24,2.5,NNE,6.9,-,0.08,Rain-Thunderstorm,Heavy Rain,30,2013-04-27 06:41:00
1:53 AM,52.0,48.9,89,30.26,3.0,North,6.9,-,0.13,Rain-Thunderstorm,Light Rain,360,2013-04-27 06:53:00
1:55 AM,51.8,48.2,88,30.26,3.0,North,5.8,-,0.01,Rain-Thunderstorm,Rain,350,2013-04-27 06:55:00
1:59 AM,51.8,48.2,88,30.25,2.5,North,9.2,-,0.03,Rain-Thunderstorm,Heavy Rain,350,2013-04-27 06:59:00
2:10 AM,51.8,48.2,88,30.24,1.8,NE,5.8,-,0.17,Rain,Heavy Rain,50,2013-04-27 07:10:00
2:21 AM,51.8,50.0,94,30.23,2.0,ENE,3.5,-,0.27,Rain,Light Rain,60,2013-04-27 07:21:00
2:26 AM,51.8,48.2,88,30.22,4.0,NE,5.8,-,0.27,Rain,Light Rain,50,2013-04-27 07:26:00
2:53 AM,51.1,48.9,92,30.21,5.0,NE,8.1,-,0.28,Rain,Light Rain,40,2013-04-27 07:53:00
3:40 AM,51.8,48.2,88,30.18,7.0,ENE,6.9,-,0.03,,Overcast,70,2013-04-27 08:40:00
3:53 AM,52.0,48.9,89,30.19,7.0,ENE,5.8,-,0.03,Rain,Light Rain,70,2013-04-27 08:53:00
4:53 AM,52.0,48.9,89,30.15,6.0,ENE,6.9,-,0.03,Rain,Light Rain,60,2013-04-27 09:53:00
5:53 AM,52.0,50.0,93,30.15,7.0,East,5.8,-,0.00,,Overcast,80,2013-04-27 10:53:00
6:01 AM,51.8,50.0,94,30.12,7.0,ENE,9.2,-,0.00,Rain-Thunderstorm,Light Rain,60,2013-04-27 11:01:00
6:16 AM,51.8,50.0,94,30.12,7.0,ENE,5.8,-,0.00,Rain,Light Rain,60,2013-04-27 11:16:00
6:53 AM,52.0,50.0,93,30.13,5.0,East,5.8,-,0.02,Rain,Rain,80,2013-04-27 11:53:00
7:03 AM,51.8,50.0,94,30.13,4.0,NNE,5.8,-,0.04,Rain-Thunderstorm,Thunderstorms and Rain,30,2013-04-27 12:03:00
7:20 AM,51.8,50.0,94,30.14,2.5,NE,6.9,-,0.14,Rain-Thunderstorm,Rain,50,2013-04-27 12:20:00
7:25 AM,51.8,50.0,94,30.13,3.0,East,8.1,-,0.16,Rain-Thunderstorm,Rain,80,2013-04-27 12:25:00
7:34 AM,51.8,50.0,94,30.14,3.0,ENE,8.1,-,0.19,Rain,Rain,70,2013-04-27 12:34:00
7:51 AM,51.8,50.0,94,30.12,2.5,East,9.2,-,0.26,Rain,Rain,80,2013-04-27 12:51:00
7:53 AM,52.0,50.0,93,30.12,2.5,ENE,9.2,-,0.26,Rain,Rain,70,2013-04-27 12:53:00
8:14 AM,51.8,50.0,94,30.10,3.0,ENE,8.1,-,0.05,Rain,Light Rain,60,2013-04-27 13:14:00
8:53 AM,53.1,50.0,89,30.13,10.0,East,3.5,-,0.06,,Overcast,100,2013-04-27 13:53:00
9:53 AM,54.0,51.1,90,30.11,10.0,ENE,6.9,-,N/A,,Overcast,70,2013-04-27 14:53:00
10:53 AM,54.0,52.0,93,30.10,10.0,East,6.9,-,N/A,,Overcast,90,2013-04-27 15:53:00
11:53 AM,55.9,53.1,90,30.08,10.0,East,4.6,-,N/A,,Overcast,90,2013-04-27 16:53:00
12:53 PM,57.0,54.0,89,30.06,9.0,ENE,4.6,-,N/A,,Overcast,70,2013-04-27 17:53:00
1:53 PM,57.9,55.0,90,30.02,9.0,East,4.6,-,0.00,,Overcast,100,2013-04-27 18:53:00
2:53 PM,59.0,55.0,87,30.01,10.0,North,4.6,-,0.00,Rain,Light Rain,350,2013-04-27 19:53:00
3:53 PM,59.0,55.9,90,29.98,10.0,NE,4.6,-,0.00,,Overcast,50,2013-04-27 20:53:00
4:31 PM,59.0,55.4,88,29.97,10.0,North,3.5,-,0.01,Rain-Thunderstorm,Light Rain,350,2013-04-27 21:31:00
4:45 PM,59.0,55.4,88,29.96,2.5,NNW,5.8,-,0.05,Rain,Light Rain,340,2013-04-27 21:45:00
4:53 PM,59.0,55.9,90,29.97,6.0,North,4.6,-,0.06,Rain,Light Rain,350,2013-04-27 21:53:00
5:18 PM,59.0,55.4,88,29.96,2.5,North,4.6,-,0.03,Rain,Light Rain,360,2013-04-27 22:18:00
5:27 PM,59.0,55.4,88,29.95,3.0,NNE,4.6,-,0.05,Rain,Light Rain,20,2013-04-27 22:27:00
5:53 PM,59.0,55.9,90,29.94,5.0,North,4.6,-,0.06,Rain,Light Rain,10,2013-04-27 22:53:00
6:53 PM,57.9,55.9,93,29.94,8.0,NW,6.9,-,N/A,,Overcast,320,2013-04-27 23:53:00
7:53 PM,57.0,55.0,93,29.94,7.0,NW,9.2,-,N/A,,Overcast,310,2013-04-28 00:53:00
8:11 PM,57.2,55.4,94,29.94,4.0,NW,9.2,-,N/A,,Overcast,320,2013-04-28 01:11:00
8:53 PM,57.0,55.0,93,29.95,6.0,NW,5.8,-,N/A,,Overcast,320,2013-04-28 01:53:00
9:13 PM,57.2,55.4,94,29.94,10.0,NW,8.1,-,N/A,,Overcast,320,2013-04-28 02:13:00
9:53 PM,55.9,54.0,93,29.94,10.0,NW,6.9,-,N/A,,Overcast,310,2013-04-28 02:53:00
10:53 PM,55.9,53.1,90,29.94,10.0,WNW,4.6,-,N/A,,Overcast,300,2013-04-28 03:53:00
11:53 PM,55.0,52.0,89,29.94,10.0,West,4.6,-,N/A,,Scattered Clouds,270,2013-04-28 04:53:00